FW0532 Weather Reports


Display with metric or nautical units.
time (UTC)temp
F
wind
direction
speed
MPH
gust
MPH
rain 1hr
in
rain 24hr
in
rain mn
in
humidity
%
barometer
mb
20260906092843 65 74 3.0 7.0 0.00 0.40 0.00 86 1014.1
20260906092343 65 84 0.0 7.0 0.00 0.40 0.00 86 1014.0
20260906091843 65 16 0.0 7.0 0.00 0.40 0.00 88 1013.9
20260906091343 65 342 2.0 6.0 0.00 0.42 0.00 88 1013.7
20260906090843 65 146 1.0 3.0 0.00 0.44 0.00 88 1013.8
20260906090343 65 360 1.0 5.0 0.00 0.48 0.00 88 1013.8
20260906085843 65 271 0.0 5.0 0.00 0.49 0.00 89 1014.0
20260906085342 65 83 0.0 3.0 0.00 0.49 0.00 88 1014.1
20260906084842 65 63 0.0 4.0 0.00 0.49 0.00 89 1014.0
20260906084342 65 78 1.0 4.0 0.00 0.49 0.00 89 1013.9
20260906083842 65 71 0.0 3.0 0.00 0.49 0.00 88 1013.9
20260906083342 65 74 1.0 5.0 0.00 0.49 0.00 88 1013.9
20260906082841 66 72 1.0 5.0 0.00 0.49 0.00 87 1014.1
20260906082341 66 355 3.0 6.0 0.00 0.49 0.00 87 1014.0
20260906081841 65 74 2.0 6.0 0.00 0.49 0.00 87 1014.0
20260906081341 66 65 2.0 5.0 0.00 0.49 0.00 87 1014.1
20260906080841 65 21 0.0 4.0 0.00 0.49 0.00 88 1013.9
20260906080341 65 49 0.0 4.0 0.00 0.49 0.00 88 1014.0
20260906075841 65 51 0.0 3.0 0.00 0.49 0.00 88 1014.0
20260906075341 65 71 3.0 4.0 0.00 0.49 0.00 88 1014.0
20260906074840 65 97 0.0 5.0 0.00 0.49 0.00 89 1014.0
20260906074340 66 86 2.0 5.0 0.00 0.49 0.00 88 1014.0
20260906073340 66 62 0.0 4.0 0.00 0.49 0.00 89 1013.9
20260906072840 66 92 0.0 4.0 0.00 0.49 0.00 89 1014.0
20260906072339 66 102 0.0 3.0 0.00 0.49 0.00 89 1014.0
20260906071839 66 89 1.0 4.0 0.00 0.49 0.00 89 1014.0
20260906070339 66 92 0.0 2.0 0.00 0.49 0.00 89 1013.9
20260906065839 66 119 0.0 4.0 0.00 0.49 0.00 90 1013.9
20260906065339 66 74 0.0 4.0 0.00 0.49 0.00 90 1013.9
20260906064839 65 67 2.0 4.0 0.00 0.49 0.00 90 1013.8
20260906064339 65 66 0.0 3.0 0.00 0.49 0.00 91 1013.9
20260906063838 66 36 0.0 3.0 0.00 0.49 0.00 91 1013.9
20260906063338 66 72 0.0 3.0 0.00 0.49 0.00 91 1013.9
20260906062838 66 95 0.0 3.0 0.00 0.49 0.00 91 1014.0
20260906062338 66 121 0.0 3.0 0.00 0.49 0.00 92 1014.0
20260906061337 66 56 0.0 2.0 0.00 0.49 0.00 93 1014.0
20260906060337 66 90 0.0 2.0 0.00 0.49 0.00 93 1013.9
20260906054837 66 90 0.0 3.0 0.00 0.49 0.00 93 1013.7
20260906054336 66 90 0.0 3.0 0.00 0.49 0.00 94 1013.7
20260906053836 66 76 1.0 3.0 0.00 0.49 0.00 94 1013.6
20260906052836 65 86 0.0 2.0 0.00 0.49 0.00 94 1013.5
20260906052337 65 91 1.0 2.0 0.00 0.49 0.00 93 1013.5
20260906051336 65 23 0.0 1.0 0.00 0.49 0.00 94 1013.4
20260906050836 65 74 0.0 1.0 0.00 0.49 0.00 94 1013.3
20260906050336 66 43 0.0 0.0 0.00 0.49 0.00 93 1013.2
20260906045835 66 43 0.0 1.0 0.00 0.49 0.00 93 1013.0
20260906045335 66 43 0.0 1.0 0.00 0.49 0.00 93 1013.0
20260906044835 66 43 0.0 1.0 0.00 0.49 0.00 93 1013.0
20260906044335 66 32 0.0 0.0 0.00 0.49 0.00 93 1012.9
20260906043834 66 32 0.0 1.0 0.00 0.49 0.00 93 1012.8
20260906043334 67 32 0.0 1.0 0.00 0.49 0.00 93 1012.8
20260906042835 67 36 0.0 1.0 0.00 0.49 0.00 93 1012.8
20260906042334 67 76 0.0 1.0 0.00 0.49 0.00 93 1012.7
20260906041834 67 102 0.0 1.0 0.00 0.49 0.00 93 1012.7
20260906041334 67 124 0.0 3.0 0.00 0.49 0.00 93 1012.6
20260906040834 68 49 0.0 3.0 0.00 0.49 0.00 93 1012.6
20260906040334 68 355 0.0 4.0 0.00 0.49 0.00 93 1012.8
20260906035833 68 93 0.0 4.0 0.00 0.49 0.49 93 1012.8
20260906035333 68 81 1.0 3.0 0.00 0.49 0.49 93 1012.7
20260906034833 68 40 0.0 3.0 0.00 0.49 0.49 93 1012.8
20260906033833 69 85 1.0 5.0 0.00 0.49 0.49 93 1012.9
20260906033333 69 64 0.0 5.0 0.00 0.49 0.49 93 1013.0
20260906032833 69 75 1.0 4.0 0.00 0.49 0.49 93 1013.0
20260906032332 69 85 0.0 5.0 0.00 0.49 0.49 93 1012.9
20260906031332 70 80 3.0 5.0 0.00 0.49 0.49 93 1012.9
20260906030332 70 74 0.0 5.0 0.00 0.49 0.49 93 1013.0
20260906025832 70 86 0.0 4.0 0.00 0.49 0.49 93 1013.0
20260906025331 70 61 1.0 4.0 0.00 0.49 0.49 93 1013.0
20260906024831 70 56 0.0 5.0 0.00 0.49 0.49 93 1013.0
20260906024331 71 81 1.0 5.0 0.00 0.49 0.49 94 1012.9
20260906023831 71 108 0.0 5.0 0.00 0.49 0.49 93 1012.8
20260906023331 71 121 1.0 4.0 0.00 0.49 0.49 94 1012.8
20260906022330 72 60 0.0 4.0 0.00 0.49 0.49 94 1012.9
20260906021830 72 61 1.0 4.0 0.00 0.49 0.49 94 1012.9
20260906021330 72 74 0.0 4.0 0.00 0.49 0.49 94 1013.0
20260906020830 73 72 2.0 4.0 0.00 0.49 0.49 94 1013.0
20260906020330 73 75 0.0 6.0 0.00 0.49 0.49 94 1013.0
20260906015830 73 81 1.0 6.0 0.00 0.49 0.49 94 1012.6
20260906015329 73 22 3.0 6.0 0.00 0.49 0.49 94 1012.4
20260906014829 74 17 3.0 5.0 0.00 0.49 0.49 94 1012.5
20260906013329 73 65 0.0 2.0 0.00 0.49 0.49 94 1012.4
20260906012829 73 77 0.0 2.0 0.00 0.49 0.49 94 1012.4
20260906012329 73 53 2.0 2.0 0.00 0.49 0.49 94 1012.2
20260906011828 73 340 0.0 0.0 0.00 0.49 0.49 94 1012.2
20260906010828 73 340 0.0 1.0 0.00 0.49 0.49 94 1012.0
20260906005828 74 13 0.0 0.0 0.00 0.49 0.49 94 1011.8
20260906005327 74 13 0.0 0.0 0.00 0.49 0.49 94 1011.8
20260906004827 74 13 0.0 1.0 0.00 0.49 0.49 94 1011.8
20260906004327 74 13 0.0 1.0 0.00 0.49 0.49 94 1011.7
20260906003827 74 71 0.0 0.0 0.00 0.49 0.49 94 1011.6
20260906003327 74 71 0.0 0.0 0.00 0.49 0.49 94 1011.6
20260906002827 74 71 0.0 0.0 0.00 0.49 0.49 94 1011.7
20260906002327 74 71 0.0 0.0 0.00 0.49 0.49 94 1011.6
20260906001326 74 71 0.0 0.0 0.00 0.49 0.49 93 1011.6
20260906000826 74 71 0.0 1.0 0.00 0.49 0.49 93 1011.4
20260906000326 75 71 0.0 1.0 0.00 0.49 0.49 93 1011.3
20260905235826 75 57 0.0 1.0 0.00 0.49 0.49 93 1011.4
20260905234326 76 97 0.0 2.0 0.00 0.49 0.49 93 1011.5
20260905233826 76 9 0.0 2.0 0.00 0.49 0.49 93 1011.5
20260905233325 76 78 0.0 3.0 0.00 0.49 0.49 92 1011.5
20260905232825 76 82 0.0 3.0 0.00 0.49 0.49 92 1011.3
20260905231825 77 78 0.0 7.0 0.00 0.49 0.49 92 1011.3
20260905231324 77 108 0.0 4.0 0.00 0.49 0.49 92 1011.3
20260905230824 77 53 0.0 3.0 0.00 0.49 0.49 92 1011.4
20260905230324 77 97 1.0 2.0 0.00 0.49 0.49 92 1011.4
20260905225824 77 14 0.0 2.0 0.00 0.49 0.49 92 1011.3
20260905225324 77 355 0.0 4.0 0.00 0.49 0.49 92 1011.3
20260905224824 78 91 0.0 4.0 0.00 0.49 0.49 92 1011.2
20260905224324 78 59 0.0 4.0 0.00 0.49 0.49 92 1011.2
20260905223824 79 108 0.0 2.0 0.00 0.49 0.49 92 1011.0
20260905223323 79 108 0.0 3.0 0.07 0.49 0.49 93 1011.0
20260905222823 79 95 0.0 3.0 0.07 0.49 0.49 93 1011.0
20260905221323 78 99 0.0 1.0 0.07 0.49 0.49 93 1010.9
20260905220822 78 99 0.0 2.0 0.07 0.49 0.49 92 1011.0
20260905220322 78 99 0.0 3.0 0.07 0.49 0.49 92 1010.9
20260905215822 78 99 0.0 3.0 0.07 0.49 0.49 91 1010.8
20260905215322 79 123 1.0 2.0 0.07 0.49 0.49 91 1010.6
20260905214822 79 71 1.0 3.0 0.07 0.49 0.49 90 1010.5
20260905214322 79 71 2.0 4.0 0.07 0.49 0.49 89 1010.5
20260905213821 80 293 2.0 9.0 0.07 0.49 0.49 87 1010.7
20260905212821 82 88 2.0 3.0 0.00 0.42 0.42 83 1010.6
20260905212321 83 333 0.0 3.0 0.00 0.42 0.42 82 1010.7
20260905211851 84 86 1.0 3.0 0.00 0.42 0.42 82 1010.7
20260905211351 84 5 0.0 4.0 0.00 0.42 0.42 80 1010.8
20260905210851 84 355 1.0 4.0 0.00 0.42 0.42 78 1010.9
20260905210350 84 86 0.0 4.0 0.00 0.42 0.42 81 1011.1
20260905205850 83 103 1.0 3.0 0.00 0.42 0.42 82 1011.0
20260905205350 83 78 0.0 2.0 0.00 0.42 0.42 83 1011.1
20260905204850 83 78 0.0 3.0 0.00 0.42 0.42 84 1011.1
20260905204350 83 78 1.0 3.0 0.00 0.42 0.42 82 1011.3
20260905203850 83 9 0.0 4.0 0.00 0.42 0.42 82 1011.2
20260905203350 84 349 2.0 4.0 0.00 0.42 0.42 79 1011.2
20260905202850 84 324 2.0 4.0 0.00 0.42 0.42 78 1011.2
20260905201849 83 327 1.0 4.0 0.00 0.42 0.42 77 1011.3
20260905201349 84 327 1.0 5.0 0.00 0.42 0.42 79 1011.3
20260905200849 84 71 0.0 5.0 0.00 0.42 0.42 79 1011.4
20260905195848 84 22 1.0 5.0 0.00 0.43 0.42 79 1011.6
20260905195349 84 84 2.0 5.0 0.00 0.44 0.42 77 1011.6
20260905194348 83 24 1.0 4.0 0.00 0.54 0.42 76 1012.1
20260905193848 83 347 2.0 4.0 0.00 0.58 0.42 77 1012.1
20260905193348 83 5 1.0 6.0 0.00 0.64 0.42 76 1012.1
20260905192847 83 337 1.0 6.0 0.00 0.70 0.42 77 1012.1
20260905192347 83 5 1.0 7.0 0.00 0.79 0.42 77 1012.1
20260905191847 84 329 2.0 7.0 0.00 0.82 0.42 76 1012.2
20260905191347 83 339 0.0 4.0 0.00 0.82 0.42 76 1012.2
20260905190847 83 284 1.0 5.0 0.00 0.82 0.42 76 1012.3
20260905190347 83 309 2.0 6.0 0.00 0.82 0.42 77 1012.6
20260905185846 83 355 3.0 6.0 0.00 0.82 0.42 75 1012.4
20260905185347 84 336 1.0 5.0 0.00 0.82 0.42 75 1012.5
20260905184346 84 146 2.0 6.0 0.00 0.82 0.42 76 1012.6
20260905183846 84 360 1.0 4.0 0.00 0.82 0.42 78 1012.6
20260905182846 84 306 2.0 9.0 0.00 0.82 0.42 77 1012.6
20260905182345 83 39 1.0 9.0 0.00 0.82 0.42 76 1012.6
20260905181846 83 164 1.0 5.0 0.00 0.82 0.42 77 1012.6
20260905181346 83 232 2.0 5.0 0.00 0.82 0.42 78 1012.7
20260905180845 83 271 4.0 5.0 0.00 0.82 0.42 77 1012.8
20260905173844 80 16 5.0 6.0 0.00 0.82 0.42 83 1012.6
20260905173344 80 189 0.0 5.0 0.00 0.82 0.42 82 1012.7
20260905172845 79 355 1.0 5.0 0.00 0.82 0.42 84 1012.7
20260905172344 79 318 3.0 3.0 0.00 0.82 0.42 86 1012.6
20260905171844 77 345 0.0 7.0 0.00 0.82 0.42 87 1012.7
20260905171343 77 355 0.0 7.0 0.00 0.82 0.42 87 1012.7
20260905170843 76 240 0.0 6.0 0.00 0.82 0.42 87 1012.9
20260905170343 76 24 0.0 6.0 0.00 0.82 0.42 87 1012.9
20260905165843 76 321 1.0 3.0 0.00 0.82 0.42 88 1013.0
20260905165343 75 317 0.0 3.0 0.00 0.82 0.42 89 1012.7
20260905164843 75 317 0.0 3.0 0.00 0.82 0.42 90 1012.9
20260905164343 75 19 0.0 2.0 0.00 0.82 0.42 90 1013.1
20260905163842 75 19 0.0 2.0 0.00 0.82 0.42 90 1013.0
20260905162842 74 19 0.0 0.0 0.00 0.82 0.42 91 1012.9
20260905162342 74 19 0.0 0.0 0.00 0.82 0.42 91 1013.0
20260905161842 74 19 0.0 0.0 0.00 0.82 0.42 92 1013.0
20260905161342 74 19 0.0 0.0 0.00 0.82 0.42 92 1013.1
20260905160341 75 15 0.0 3.0 0.00 0.82 0.42 92 1013.1
20260905155842 75 82 1.0 1.0 0.00 0.82 0.42 92 1013.0
20260905155341 74 82 0.0 3.0 0.00 0.82 0.42 91 1012.9
20260905154841 74 9 0.0 3.0 0.00 0.82 0.42 90 1013.0
20260905154341 75 9 1.0 3.0 0.00 0.82 0.42 90 1013.0
20260905153840 75 186 0.0 3.0 0.00 0.82 0.42 88 1012.6
20260905153340 75 186 2.0 3.0 0.00 0.82 0.42 88 1012.4
20260905152840 74 186 0.0 2.0 0.00 0.82 0.42 89 1012.3
20260905152340 74 186 0.0 2.0 0.00 0.82 0.42 88 1012.4
20260905151840 74 186 0.0 3.0 0.00 0.82 0.42 87 1012.4
20260905151340 74 186 1.0 3.0 0.00 0.82 0.42 87 1012.5
20260905150840 74 205 2.0 3.0 0.00 0.82 0.42 87 1012.5
20260905150339 75 211 2.0 3.0 0.00 0.82 0.42 86 1012.7
20260905145839 75 189 0.0 4.0 0.00 0.82 0.42 87 1012.5
20260905145339 75 187 1.0 5.0 0.00 0.82 0.42 86 1012.4
20260905144839 75 207 3.0 5.0 0.00 0.82 0.42 86 1012.3
20260905144339 75 202 0.0 6.0 0.00 0.82 0.42 86 1012.3
20260905143839 74 188 3.0 6.0 0.00 0.82 0.42 88 1012.5
20260905143338 74 219 4.0 5.0 0.00 0.82 0.42 89 1012.4
20260905142838 73 231 5.0 6.0 0.00 0.82 0.42 90 1012.2
20260905142338 73 258 1.0 9.0 0.00 0.82 0.42 90 1012.1
20260905141838 73 190 2.0 9.0 0.00 0.82 0.42 92 1012.1
20260905141338 72 209 8.0 9.0 0.00 0.82 0.42 92 1012.1
20260905140838 71 196 5.0 7.0 0.00 0.82 0.42 94 1012.0
20260905140338 70 185 3.0 7.0 0.00 0.82 0.42 94 1012.0
20260905135838 70 185 4.0 6.0 0.00 0.82 0.42 95 1011.8
20260905135337 70 192 3.0 4.0 0.00 0.82 0.42 96 1011.8
20260905134838 70 201 1.0 3.0 0.00 0.82 0.42 96 1012.0
20260905134337 69 178 2.0 4.0 0.00 0.82 0.42 95 1011.8
20260905133837 68 247 1.0 5.0 0.00 0.82 0.42 96 1011.9
20260905132837 69 175 3.0 6.0 0.00 0.82 0.42 96 1011.7
20260905132337 69 190 2.0 3.0 0.00 0.82 0.42 96 1011.9
20260905131337 68 260 0.0 2.0 0.00 0.82 0.42 96 1012.2
20260905130336 68 192 1.0 3.0 0.00 0.82 0.42 95 1012.7
20260905124836 68 243 0.0 2.0 0.00 0.82 0.42 96 1012.6
20260905124335 68 243 0.0 2.0 0.01 0.82 0.42 96 1012.9
20260905123835 68 243 0.0 2.0 0.01 0.82 0.42 96 1012.5
20260905123335 68 344 0.0 2.0 0.03 0.82 0.42 96 1012.6
20260905122834 68 344 0.0 2.0 0.04 0.82 0.42 96 1013.0
20260905121835 68 109 0.0 3.0 0.10 0.82 0.42 96 1013.0
20260905121334 68 109 0.0 5.0 0.13 0.82 0.42 96 1012.8
20260905120834 68 88 1.0 5.0 0.16 0.82 0.42 95 1012.7
20260905120334 68 109 3.0 3.0 0.17 0.82 0.42 95 1012.8
20260905115834 67 115 0.0 3.0 0.18 0.82 0.42 95 1013.0
20260905115333 67 115 0.0 3.0 0.18 0.82 0.42 95 1013.3
20260905114333 67 171 0.0 2.0 0.17 0.81 0.41 95 1013.7
20260905113833 67 171 0.0 2.0 0.17 0.81 0.41 95 1013.7
20260905113333 67 171 0.0 3.0 0.15 0.79 0.39 95 1013.8
20260905112833 67 221 1.0 3.0 0.15 0.78 0.38 95 1014.2
20260905112333 67 190 0.0 2.0 0.12 0.75 0.35 95 1014.3
20260905111833 67 190 0.0 3.0 0.09 0.72 0.32 95 1014.4
20260905111332 67 190 2.0 3.0 0.07 0.69 0.29 95 1014.5
20260905110332 67 338 0.0 3.0 0.03 0.65 0.25 95 1014.3
20260905105332 67 218 1.0 3.0 0.03 0.64 0.24 95 1013.7
20260905104832 67 129 0.0 2.0 0.03 0.64 0.24 95 1013.6
20260905104331 67 103 0.0 4.0 0.03 0.64 0.24 95 1013.8
20260905103831 67 103 0.0 5.0 0.04 0.64 0.24 95 1013.8
20260905103331 67 88 2.0 5.0 0.05 0.64 0.24 95 1013.8
20260905102831 67 97 1.0 5.0 0.14 0.63 0.23 95 1013.9
20260905102331 67 74 2.0 4.0 0.14 0.63 0.23 95 1014.3
20260905101331 67 86 1.0 2.0 0.15 0.62 0.22 94 1014.3
20260905100331 68 115 0.0 5.0 0.21 0.62 0.22 94 1014.4
20260905095830 68 81 3.0 5.0 0.21 0.61 0.21 94 1014.3
20260905095330 68 288 2.0 3.0 0.21 0.61 0.21 94 1014.9
20260905094830 68 288 0.0 1.0 0.21 0.61 0.21 94 1015.1
20260905094330 68 288 0.0 2.0 0.21 0.61 0.21 94 1015.2
20260905093329 68 67 0.0 4.0 0.19 0.59 0.19 94 1014.9